Regional Weather Roundup
Issued by NWS Upton, NY

Current Version | Previous Version | Graphics & Text | Print | Product List | Glossary Off
Versions: 1 2 3 4 5 6 7 8 9 10 11 12 13 14 15 16 17 18 19 20 21 22 23 24 25 26 27 28

000
ASUS41 KOKX 230604
RWROKX

REGIONAL WEATHER ROUNDUP
NATIONAL WEATHER SERVICE NEW YORK NY
200 AM EDT TUE AUG 23 2016

NOTE: "FAIR" INDICATES FEW OR NO CLOUDS BELOW 12,000 FEET WITH NO
SIGNIFICANT WEATHER AND/OR OBSTRUCTIONS TO VISIBILITY.

NYZ071-072-176-178-NJZ106-104-230700-
NEW YORK CITY METRO AREA

CITY           SKY/WX    TMP DP  RH WIND       PRES   REMARKS
Central Park   CLEAR     65  48  54 VRB3      30.26R
LaGuardia APRT PTCLDY    69  49  48 N6        30.22S
Kennedy INTL   CLEAR     65  48  54 N5        30.24R
Newark/Liberty PTCLDY    66  48  52 NW6       30.23S
Bronx Bot Gard   N/A     61  46  59 CALM      30.26R
Wall St Helipt CLEAR     70  52  52 CALM      30.24S
Teterboro      CLEAR     63  49  60 CALM      30.23R
$$

NYZ177-179-078>081-230700-
LONG ISLAND NEW YORK

CITY           SKY/WX    TMP DP  RH WIND       PRES   REMARKS
Farmingdale    CLEAR     63  52  67 CALM      30.23R
MacArthur/ISP  CLEAR     61  51  70 N6        30.22R
Shirley        CLEAR     58  49  72 CALM      30.23R
Riverhead      NOT AVBL
Westhampton    CLEAR     53  47  79 CALM      30.24R
Southampton      N/A     66  52  59 N3        30.18R
Bridgehampton  NOT AVBL
East Hampton   FAIR      55  51  87 CALM      30.21S
Montauk          N/A     66  54  65 NW6       30.22R
$$

NYZ052-065-067-230700-
HUDSON VALLEY

CITY           SKY/WX    TMP DP  RH WIND       PRES   REMARKS
White Plains   CLEAR     59  50  72 NW3       30.23R
Newburgh       CLEAR     54  52  94 W7        30.25R
Montgomery     CLEAR     54  51  90 CALM      30.24R
Poughkeepsie   CLEAR    N/A N/A N/A MISG      30.23R
Albany         CLEAR     55  49  80 SE5       30.23R
$$

NJZ001-105-106-008-010-013-015-019>022-104-230700-
NEW JERSEY

CITY           SKY/WX    TMP DP  RH WIND       PRES   REMARKS
Newark/Liberty PTCLDY    66  48  52 NW6       30.23S
Teterboro      CLEAR     63  49  60 CALM      30.23R
Caldwell       CLEAR     58  52  80 CALM      30.25R
Morristown     CLEAR     52  52 100 CALM      30.25R
Somerville     CLEAR     55  52  89 NW3       30.23R
Linden         FAIR      62  50  66 CALM      30.26R
Sussex         CLEAR     52  52 100 CALM      30.26R
Abdover          N/A     52  51  97 CALM      30.26R
Trenton        CLEAR     59  53  80 NW3       30.24S
Millville      CLEAR     58  57  97 CALM      30.25R
Atlantic City  CLEAR     59  51  75 CALM      30.24S
Wrightstown    CLEAR     57  53  84 S3        30.22R
Toms River     PTCLDY    53  50  89 CALM      30.25R
Belmar         PTCLDY    58  51  78 W3        30.25R
$$

PAZ047>061-062-071-230700-
EASTERN PENNSYLVANIA

CITY           SKY/WX    TMP DP  RH WIND       PRES   REMARKS
Philadelphia   CLEAR     66  51  58 NE3       30.25R
Allentown      CLEAR     56  52  86 CALM      30.26R
Scranton       CLEAR     54  49  83 E6        30.27R
$$

CTZ002-004>006-009-010-012-RIZ004-006-007-MAZ004-011-015-230700-
SOUTHERN NEW ENGLAND
 IN CT

CITY           SKY/WX    TMP DP  RH WIND       PRES   REMARKS
Bradley INTL   CLEAR     56  49  77 N3        30.22R
Hartford       CLEAR     61  53  75 CALM      30.22R
Danbury        CLEAR     52  50  93 SW5       30.25R
Wtrbury/Oxford   N/A     54  46  76 CALM      30.24S
Bridgeport     CLEAR     62  50  64 NW5       30.22S
Meriden        CLEAR     55  50  83 S3        30.22R
New Haven      CLEAR     55  49  80 CALM      30.23R
Chester        FAIR      59  48  67 CALM      30.23R
Groton         CLEAR     58  52  80 N3        30.21R
Wilimantic     CLEAR     55  53  93 CALM      30.23R

 IN RI

CITY           SKY/WX    TMP DP  RH WIND       PRES   REMARKS
Providence     PTCLDY    57  50  77 SW5       30.20R
Block Island   CLEAR     63  52  67 NW6       30.21R
Westerly       CLEAR     59  50  72 CALM      30.22R
 IN MA

CITY           SKY/WX    TMP DP  RH WIND       PRES   REMARKS
Boston         CLEAR     63  49  60 W8        30.19R
Worcester      CLEAR     56  45  66 W13       30.21R
Westfield      CLEAR     52  51  97 CALM      30.22R
Provincetown   CLEAR     65  55  70 NW8       30.17R
Nantucket      CLEAR     66  49  54 N15       30.17R
$$

ANZ330-335-338-340-345-350-353-355-230700-
COASTAL MARINE OBSERVATIONS


STATION/POSITION TIME  SKY/WX   TEMP    WIND        PRES    VSBY  WAVE
                                AIR SEA DIR/SP/G                  HT/PER
                 (UTC)          (F)     (DEG/KT/KT) (MB)    (MI)  (FT/S)
NY HARB ENTRANCE 0450            72 77   10/ 14/ 16 1022.7          2/13
20S FIRE ISLAND  0450            71 77   20/ 16/ 17 1022.2          3/ 4
GREAT SOUTH BAY  0530            68 80  340/  6/  8   N/A
23 SSW MONTAUK P 0450            70 74  330/ 14/ 16 1022.8          2/ 3
15 E BARNEGAT LI 0500               76                N/A           4/ 5
HUDSON CANYON    0450            73 78              1021.9          4/ 5
KINGS POINT      0500            70 75              1023.3
EXECUTION ROCKS  0500            69     360/  6/  8   N/A
CENTRAL LI SOUND 0500            69 75  340/  8/ 10   N/A           1
EASTERN LI SOUND 0500            66 70  320/  8/ 10   N/A
ROBBINS REEF     0500            69     330/  6/  7 1022.8
$$


>>>>>>>>>>>>>>>>>>>>>>>>>>>> KEY <<<<<<<<<<<<<<<<<<<<<<<<<<<
>                                                          <
>     SKY/WX - Sky Condition/Present Weather               <
>     TMP    - Temperature in Fahrenheit                   <
>     DP     - Dew Point in Fahrenheit                     <
>     RH     - Relative Humidity in Percent                <
>     WIND   - Direction (from) and Speed in MPH           <
>     PRES   - Mean Sea Level Pressure (inches of Hg)      <
>     WCI    - Wind Chill Index                            <
>     VSB    - VISIBILITY IN MILES                         <
>     HX     - HEAT INDEX                                  <
>     TC     - TEMPERATURE IN CELSIUS                      <
>     VRB    - VARIABLE WIND DIRECTION                     <
>                                                          <
>>>>>>>>>>>>>>>>>>>>>>>>>>>> KEY <<<<<<<<<<<<<<<<<<<<<<<<<<<




USA.gov is the U.S. government's official web portal to all federal, state and local government web resources and services.